Regional Weather Roundup
Issued by NWS Bismarck, ND

Home | Current Version | Previous Version | Text Only | Print | Product List | Glossary On
Versions: 1 2 3 4 5 6 7 8 9 10 11 12 13 14 15 16 17 18 19 20 21 22 23 24 25 26 27 28 29 30 31 32 33 34 35 36 37 38 39 40 41 42 43 44 45 46 47 48 49 50
000
ASUS43 KBIS 051220
RWRBIS

NWR BROADCAST TEXT
NATIONAL WEATHER SERVICE BISMARCK ND
700 AM CDT TUE MAY 05 2015

NOTE: "FAIR" INDICATES FEW OR NO CLOUDS BELOW 12,000 FEET WITH NO
SIGNIFICANT WEATHER AND/OR OBSTRUCTIONS TO VISIBILITY.


CITY           SKY/WX    TMP DP  RH WIND       PRES   REMARKS
WILLISTON      CLEAR     50  28  42 VRB3      29.95F
MINOT          MOCLDY    53  29  39 SE12      30.03S
MINOT AFB      PTCLDY    52  31  45 S14       30.02S
BISMARCK       CLOUDY    51  30  44 SE12      30.06F
DICKINSON      CLEAR     40  29  64 SE9       29.97F
GARRISON         N/A     52  31  44 SE13      30.02F
HETTINGER ARPT CLEAR     44  29  55 SE9       30.01F
JAMESTOWN      PTCLDY    48  29  47 S8        30.14S
BEACH          FAIR      41  28  60 SE14      29.95S
CARRINGTON     PTSUNNY   48  28  46 S17       30.13S
CROSBY         FAIR      46  30  53 S14       29.95F
HARVEY         PTSUNNY   54  28  37 SE14      30.09F
HAZEN          CLOUDY    54  27  35 SE17G24   30.02F
LINTON         FAIR      48  32  53 SE17      30.08S
MANDAN         CLOUDY    50  28  43 SE6       30.06F
OAKES            N/A     48  34  57 SE9       30.15S
STANLEY        FAIR      45  34  65 S7        30.01S
TIOGA          FAIR      41  32  70 S8        30.00F
WATFORD CITY   FAIR      50  25  37 SE15      29.94S
$$

CITY           SKY/WX    TMP DP  RH WIND       PRES   REMARKS
GRAND FORKS    PTCLDY    40  29  64 S6        30.17R
GRAND FORKS AF CLEAR     38  26  61 S8        30.16R
DEVILS LAKE    CLOUDY    54  32  43 S13       30.13R
FARGO          CLEAR     48  31  51 SE8       30.18R
CANDO          CLOUDY    52  32  46 S10       30.12S
CAVALIER       FAIR      45  28  53 S8        30.14S
GRAFTON        FAIR      41  30  65 S6        30.17S
GWINNER        SUNNY     45  32  61 E6        30.18S
LANGDON        PTSUNNY   52  28  40 S13       30.14R
WALHALLA       FAIR      54  27  35 S10       30.13R
$$

CITY           SKY/WX    TMP DP  RH WIND       PRES   REMARKS
ABERDEEN       MOCLDY    45  33  63 CALM      30.14S
MOBRIDGE       PTCLDY    54  34  46 SE13      30.05S
BUFFALO          N/A     44  29  55 SE10      29.91S
RAPID CITY     CLEAR     38  34  85 SE8       30.00F
GLASGOW        CLEAR     44  34  67 E15       29.82S
SIDNEY         CLEAR     45  28  53 CALM      29.93S
WOLF POINT     CLEAR     44  34  67 NE7       29.88F
GLENDIVE       CLEAR     46  30  53 SE8       29.92S
MILES CITY     CLEAR     49  34  56 SE12      29.85F
BAKER          CLEAR     41  30  65 SE13      29.94S
$$

CITY           SKY/WX    TMP DP  RH WIND       PRES   REMARKS
BILLINGS       MOCLDY    45  40  82 S6        29.82S
GREAT FALLS    PTCLDY    44  33  65 S12       29.76R
REGINA         MOCLDY    48  36  61 SE13G18   29.89F
ESTEVAN        PTCLDY    45  34  65 SE12      29.97F
$$



USA.gov is the U.S. government's official web portal to all federal, state and local government web resources and services.